カタログに戻る

TITAN 4 CENTAUR R/B

運用中MEO
NORAD 23247·ROCKET BODY·🇺🇸 United States

打ち上げ Aug 27, 1994 から Cape Canaveral Space Force Station

Loading…

次のパス (今後24時間)

TLE

最新Source: Space-Track

元期: Sep 14, 2026, 09:01 UTC

1 23247U 94054B   26257.37619206  .00000002  00000-0  00000-0 0  9998
2 23247  12.2312 353.9319 0114072 356.4404   3.4985  0.99582579 26411

AllMySatでTITAN 4 CENTAUR R/Bをリアルタイム追跡

Download on the App Store